Location: *
(49.5667°N, 1.3667°W)
Time: 04:44:10
(UTC+00:00)

Meteor 2-12 Rocket - Pass Details

Date: 20 September 2019
Orbit: 936 x 957 km, 82.5° (Epoch: 15 October)

Event Time Altitude Azimuth Distance (km) Brightness Sun altitude
Rises 20:35:10 0° 351° (N) 3,619 8.1 -23.3°
Reaches altitude 10° 20:37:42 10° 355° (N) 2,673 7.3 -23.7°
Maximum altitude 20:43:45 62° 76° (ENE) 1,063 4.4 -24.5°
Enters shadow 20:44:34 56° 112° (ESE) 1,114 4.4 -24.6°
